EW4798 Weather Reports


time (UTC)temp
C
wind
direction
speed
KPH
gust
KPH
rain 1hr
cm
rain 24hr
cm
rain mn
cm
humidity
%
barometer
mb
20260906224511 36 193 0.0 6.4 0.00 0.00 0.00 46 1007.8
20260906223010 36 193 0.0 8.0 0.00 0.00 0.00 47 1007.9
20260906221509 37 193 1.6 12.9 0.00 0.00 0.00 47 1008.0
20260906220009 36 193 0.0 6.4 0.00 0.00 0.00 47 1007.9
20260906214501 36 193 3.2 11.3 0.00 0.00 0.00 48 1008.1
20260906213105 36 193 0.0 11.3 0.00 0.00 0.00 49 1008.4
20260906211556 36 193 0.0 6.4 0.00 0.00 0.00 50 1008.6
20260906210055 36 193 0.0 6.4 0.00 0.00 0.00 49 1008.9
20260906204552 36 193 1.6 8.0 0.00 0.00 0.00 49 1009.0
20260906203050 36 193 0.0 9.7 0.00 0.00 0.00 49 1009.2
20260906201549 36 194 0.0 11.3 0.00 0.00 0.00 50 1009.3
20260906200052 36 194 1.6 16.1 0.00 0.00 0.00 50 1009.5
20260906194548 36 198 1.6 11.3 0.00 0.00 0.00 50 1009.6
20260906193048 36 198 0.0 12.9 0.00 0.00 0.00 50 1009.7
20260906191558 36 198 0.0 9.7 0.00 0.00 0.00 50 1010.0
20260906190046 36 198 3.2 12.9 0.00 0.00 0.00 49 1010.1
20260906184551 36 198 0.0 9.7 0.00 0.00 0.00 51 1010.1
20260906183046 35 198 0.0 9.7 0.00 0.00 0.00 53 1010.4
20260906181541 35 198 0.0 6.4 0.00 0.00 0.00 53 1010.5
20260906180058 35 198 0.0 9.7 0.00 0.00 0.00 54 1010.7
20260906174539 35 198 0.0 9.7 0.00 0.00 0.00 56 1010.9
20260906173038 34 198 0.0 11.3 0.00 0.00 0.00 56 1011.3
20260906171533 35 200 0.0 8.0 0.00 0.00 0.00 58 1011.3
20260906170032 35 200 0.0 6.4 0.00 0.00 0.00 57 1011.5
20260906164530 33 200 0.0 6.4 0.00 0.00 0.00 59 1011.7
20260906163029 34 200 0.0 3.2 0.00 0.00 0.00 60 1011.8
20260906161527 33 201 0.0 4.8 0.00 0.00 0.00 61 1011.7
20260906160125 33 201 0.0 6.4 0.00 0.00 0.00 62 1011.7
20260906154522 33 201 0.0 8.0 0.00 0.00 0.00 62 1011.7
20260906153019 33 201 0.0 1.6 0.00 0.00 0.00 65 1011.5
20260906151514 32 201 0.0 1.6 0.00 0.00 0.00 68 1011.3
20260906150009 32 201 0.0 0.0 0.00 0.00 0.00 70 1011.2
20260906144513 31 201 0.0 1.6 0.00 0.00 0.00 72 1011.1
20260906143007 30 201 0.0 0.0 0.00 0.00 0.00 75 1011.1
20260906141559 30 201 0.0 0.0 0.00 0.00 0.00 79 1011.1
20260906140104 28 201 0.0 0.0 0.00 0.00 0.00 81 1011.3
20260906134554 28 201 0.0 0.0 0.00 0.00 0.00 85 1011.3
20260906133117 27 201 0.0 0.0 0.00 0.00 0.00 88 1011.5
20260906131611 26 201 0.0 0.0 0.00 0.00 0.00 90 1011.4
20260906130055 26 201 0.0 0.0 0.00 0.00 0.00 92 1011.2
20260906124550 25 201 0.0 0.0 0.00 0.00 0.00 95 1011.1
20260906123052 25 201 0.0 0.0 0.00 0.00 0.00 95 1011.0
20260906121550 25 201 0.0 0.0 0.00 0.00 0.00 95 1010.9
20260906120055 25 201 0.0 0.0 0.00 0.00 0.00 95 1010.7
20260906114544 25 201 0.0 0.0 0.00 0.00 0.00 95 1010.7
20260906113043 25 201 0.0 0.0 0.00 0.00 0.00 94 1010.4
20260906111541 25 201 0.0 0.0 0.00 0.00 0.00 94 1010.4
20260906110039 25 201 0.0 0.0 0.00 0.00 0.00 93 1010.3
20260906104539 25 201 0.0 0.0 0.00 0.00 0.00 93 1010.1
20260906103036 25 201 0.0 0.0 0.00 0.00 0.00 93 1010.0
20260906101535 25 201 0.0 0.0 0.00 0.00 0.00 92 1010.0
20260906100035 25 201 0.0 0.0 0.00 0.00 0.00 92 1009.9
20260906094532 26 201 0.0 0.0 0.00 0.00 0.00 91 1009.8
20260906093038 26 201 0.0 0.0 0.00 0.00 0.00 90 1009.6
20260906091529 26 201 0.0 0.0 0.00 0.00 0.00 90 1009.5
20260906090027 26 201 0.0 0.0 0.00 0.00 0.00 88 1009.4
20260906084526 26 201 0.0 0.0 0.00 0.00 0.00 87 1009.4
20260906083025 27 201 0.0 0.0 0.00 0.00 0.00 86 1009.4
20260906081527 27 201 0.0 1.6 0.00 0.00 0.00 86 1009.1
20260906080021 27 201 0.0 0.0 0.00 0.00 0.00 86 1009.2
20260906074520 27 201 0.0 0.0 0.00 0.00 0.00 85 1009.4
20260906073017 27 201 0.0 0.0 0.00 0.00 0.00 84 1009.7
20260906071514 27 201 0.0 0.0 0.00 0.00 0.00 82 1009.7
20260906070013 27 201 0.0 0.0 0.00 0.00 0.00 81 1009.8
20260906064517 27 201 0.0 0.0 0.00 0.00 0.00 81 1009.7
20260906063012 27 201 0.0 0.0 0.00 0.00 0.00 80 1009.8
20260906061511 27 201 0.0 0.0 0.00 0.00 0.00 80 1009.6
20260906060013 28 201 0.0 0.0 0.00 0.00 0.00 79 1009.7
20260906054507 28 201 0.0 0.0 0.00 0.00 0.00 79 1009.9
20260906053015 28 201 0.0 0.0 0.00 0.00 0.00 78 1009.9
20260906051502 28 201 0.0 0.0 0.00 0.00 0.00 77 1010.0
20260906050100 28 201 0.0 0.0 0.00 0.00 0.00 76 1009.9
20260906044600 29 201 0.0 0.0 0.00 0.00 0.00 74 1009.8
20260906043100 29 201 0.0 0.0 0.00 0.00 0.00 73 1009.7
20260906041559 30 201 0.0 1.6 0.00 0.00 0.00 72 1009.7
20260906040059 30 201 0.0 1.6 0.00 0.00 0.00 71 1009.6
20260906034558 30 201 0.0 0.0 0.00 0.00 0.00 69 1009.8
20260906033101 30 201 0.0 1.6 0.00 0.00 0.00 68 1009.7
20260906031601 30 201 0.0 8.0 0.00 0.00 0.00 68 1009.7
20260906030057 31 202 0.0 3.2 0.00 0.00 0.00 68 1009.7
20260906024556 31 202 0.0 4.8 0.00 0.00 0.00 67 1009.6
20260906023056 31 202 0.0 6.4 0.00 0.00 0.00 66 1009.3
20260906021559 32 202 0.0 8.0 0.00 0.00 0.00 64 1009.0
20260906020056 32 202 0.0 9.7 0.00 0.00 0.00 62 1008.8
20260906014605 32 202 0.0 12.9 0.00 0.00 0.00 60 1008.5
20260906013055 32 207 0.0 0.0 0.00 0.00 0.00 55 1008.2
20260906011606 33 207 0.0 0.0 0.00 0.00 0.00 54 1008.0
20260906010055 33 207 0.0 0.0 0.00 0.00 0.00 52 1007.9
20260906004554 34 207 0.0 0.0 0.00 0.00 0.00 50 1007.9
20260906003053 35 207 0.0 0.0 0.00 0.00 0.00 49 1007.8
20260906001559 35 207 0.0 1.6 0.00 0.00 0.00 48 1007.9
20260906000052 36 207 0.0 1.6 0.00 0.00 0.00 47 1007.7
20260905234551 36 207 0.0 4.8 0.00 0.00 0.00 47 1007.6
20260905233106 36 207 0.0 3.2 0.00 0.00 0.00 46 1007.6
20260905231555 36 207 0.0 3.2 0.00 0.00 0.00 46 1007.6
20260905230049 36 207 0.0 8.0 0.00 0.00 0.00 47 1007.6